Location: Stoke Bliss
(52.2667°N, 2.5167°W)
Time: 02:22:13
(UTC+00:00)

Meteor 1-19 Rocket - Pass Details

Date: 21 June 2021
Orbit: 808 x 927 km, 81.2° (Epoch: 02 August)

Event Time Altitude Azimuth Distance (km) Brightness Sun altitude
Rises 02:26:44 0° 352° (N) 3,579 8.4 -8.8°
Reaches altitude 10° 02:30:15 10° 13° (NNE) 2,641 8.1 -8.5°
Maximum altitude 02:34:03 17° 52° (NE) 2,183 7.5 -8.2°
Drops below altitude 10° 02:37:49 10° 91° (E) 2,632 7.2 -7.9°
Sets 02:41:17 0° 111° (ESE) 3,562 7.6 -7.6°
